User: anonymous
Location: Fort Wayne
(41.1310°N, 85.1290°W)
Time: 04:18:02
(UTC-04:00)
Language:

Cosmos 1953 - Orbit

View from above orbital plane
View from above orbital plane
View from above satellite
View from above satellite

Ground track
Ground track

The orbit data is extracted from the following two-line orbital elements,

1 19210U 88050A   14207.84334138  .00000860  00000-0  63562-4 0  4694
2 19210 082.5212 335.7260 0013426 254.5502 105.4241 15.01937281419042
Epoch (UTC): 26 July 2014 20:14:24
Eccentricity: 0.0013426
inclination: 82.5212°
perigee height: 551 km
apogee height: 570 km
right ascension of ascending node: 335.7260°
argument of perigee: 254.5502°
revolutions per day: 15.01937281
mean anomaly at epoch: 105.4241°
orbit number at epoch: 41904

The dashed part of the orbit path shows where the satellite is in the earth's shadow,  

DLR